This is the latest recevied weather packets stored in our database for station/object VE7OTD. If no packets are shown the sender has not sent any weather packets the latest 10 day(s).
| Time | Temp. | Humidity | Pressure | Rain* | Wind** | Luminosity | Snow |
|---|---|---|---|---|---|---|---|
| 1788607670 | 13.33° C | 99% | 1017.2 hPa | 0.51 mm | - | - | - |
| 1788605852 | 13.33° C | 99% | 1016.9 hPa | 0.25 mm | - | - | - |
| 1788604052 | 13.33° C | 99% | 1016.9 hPa | 0 mm | - | - | - |
| 1788602222 | 13.33° C | 99% | 1016.7 hPa | 0 mm | - | - | - |
| 1788600407 | 13.33° C | 99% | 1016.7 hPa | 0 mm | - | - | - |
| 1788598592 | 13.33° C | 99% | 1016.4 hPa | 0 mm | - | - | - |
| 1788596778 | 13.33° C | 99% | 1016.4 hPa | 0 mm | - | - | - |
| 1788594963 | 13.33° C | 99% | 1016.3 hPa | 0 mm | - | - | - |
| 1788593148 | 13.33° C | 99% | 1016.4 hPa | 0 mm | - | - | - |
| 1788591347 | 13.89° C | 99% | 1016.1 hPa | 0 mm | - | - | - |
| 1788589518 | 13.89° C | 99% | 1016 hPa | 0 mm | - | - | - |
| 1788587702 | 13.89° C | 99% | 1016.1 hPa | 0 mm | - | - | - |
| 1788585888 | 13.89° C | 99% | 1016.2 hPa | 0 mm | - | - | - |
| 1788584087 | 13.89° C | 98% | 1016.1 hPa | 0 mm | - | - | - |
| 1788582257 | 13.89° C | 98% | 1015.9 hPa | 0 mm | - | - | - |
| 1788580457 | 14.44° C | 98% | 1015.9 hPa | 0 mm | - | - | - |
| 1788578628 | 14.44° C | 96% | 1015.7 hPa | 0 mm | - | - | - |
| 1788576813 | 15° C | 94% | 1015.3 hPa | 0 mm | - | - | - |
| 1788575012 | 15° C | 90% | 1015.4 hPa | 0 mm | - | - | - |
| 1788573182 | 15.56° C | 87% | 1015.3 hPa | 0 mm | - | - | - |
| 1788573001 | 16.67° C | 80% | 1014.9 hPa | 0 mm | - | - | - |
| 1788572874 | 17.22° C | 81% | 1014.8 hPa | 0 mm | - | - | - |
| 1788553218 | 17.22° C | 84% | 1014.2 hPa | 0 mm | - | - | - |
| 1788551402 | 16.67° C | 86% | 1014.4 hPa | 0 mm | - | - | - |
| 1788549587 | 16.11° C | 89% | 1014.6 hPa | 0 mm | - | - | - |
* Rain latest hour (hover to see other rain measurements)
** Current wind speed in m/s (hover to see current wind gust speed)